Terug naar catalogus

DELTA 1 DEB

ActiefSSO
NORAD 42586·DEBRIS·🇺🇸 United States

Gelanceerd Nov 6, 1973 vanaf Vandenberg Space Force Base

Loading…

Volgende Passages (komende 24 uur)

TLE

VerouderendSource: Space-Track

Epoch: Sep 9, 2026, 06:58 UTC

1 42586U 73086JA  26252.29034904  .00000006  00000-0  41083-3 0  9992
2 42586 102.3733 275.9782 0031079   7.5466  56.0916 12.35502469577265

Volg DELTA 1 DEB in realtime met AllMySat

Download on the App Store